[[{"header":{"parameterUnit":"m.s-1","parameterCategory":1,"la1":30.2991,"la2":30.254,"lo1":-89.0895,"lo2":-89.0444,"dy":0.0017,"dx":0.0017,"nx":28,"ny":28,"refTime":"2026-01-04T03:00:00:Z","depth":0,"parameterNumber":2,"parameterNumberName":"U-component_of_WINDS"},"data":[0,0,0,0,0,0,0,0,0,0,0,0,0,0,0,0,0,0,0,0,0,0,0,0,0,0,0,0,0,0,0,0,0,0,0,0,0,0,0,0,0,0,0,0,0,0,0,0,0,0,0,0,0,0,0,0,0,0,-0.2151,-0.2151,0,-0.2168,-0.2168,-0.2168,-0.2122,-0.2121,-0.212,-0.2118,-0.2138,-0.214,-0.2141,0,0,0,0,0,0,0,0,0,0,0,0,0,-0.2081,-0.2083,-0.2151,-0.2151,-0.2151,-0.2168,-0.2168,-0.2168,-0.2123,-0.2121,-0.2119,-0.2118,-0.2137,-0.2139,-0.2142,0,0,0,0,0,0,0,0,0,0,0,0,0,-0.2106,-0.2083,-0.2151,-0.2131,-0.2129,-0.2168,-0.2168,-0.2168,-0.2123,-0.2121,-0.2119,-0.2117,-0.2136,-0.2139,-0.2142,-0.2202,0,0,-0.215,-0.2152,0,0,0,0,0,0,0,0,-0.2105,-0.2109,-0.2133,-0.2132,-0.213,-0.2141,-0.2151,-0.218,-0.2124,-0.2125,-0.2118,-0.2116,-0.2141,-0.2143,-0.2151,-0.2203,-0.2204,-0.2151,-0.2152,-0.2153,-0.2154,0,0,0,0,0,0,0,-0.2103,-0.2108,-0.2158,-0.2134,-0.2132,-0.2121,-0.2122,-0.2156,-0.2145,-0.2125,-0.2122,-0.2124,-0.2139,-0.2148,-0.2151,-0.2204,-0.2151,-0.2153,-0.2155,-0.2156,-0.2307,-0.2309,0,0,0,0,0,0,-0.2104,-0.2107,-0.2157,-0.2158,-0.2112,-0.2124,-0.2125,-0.214,-0.2144,-0.2143,-0.2126,-0.2122,-0.2145,-0.2148,-0.2152,-0.2223,-0.2153,-0.2156,-0.2158,-0.2305,-0.2307,-0.231,0,0,0,0,0,0,-0.2102,-0.2109,-0.2156,-0.2132,-0.2137,-0.2128,-0.2144,-0.2141,-0.215,-0.2145,-0.2143,-0.2137,-0.2143,-0.2148,-0.219,-0.2223,-0.2157,-0.216,-0.2302,-0.2305,-0.2309,-0.2366,0,0,0,0,0,0,-0.2101,-0.2108,-0.2131,-0.2132,-0.2138,-0.2194,-0.2146,-0.2143,-0.2155,-0.215,-0.2155,-0.2154,-0.2142,-0.2186,-0.2193,-0.2226,-0.2162,-0.2299,-0.2303,-0.2308,-0.2361,-0.2371,-0.2379,0,0,0,0,0,-0.2098,-0.2147,-0.2132,-0.2139,-0.2166,-0.2196,-0.22,-0.2184,-0.2157,-0.218,-0.2177,-0.2154,-0.2218,-0.2191,-0.2198,-0.2232,-0.2297,-0.2302,-0.2307,-0.2357,-0.2369,-0.2379,0,0,0,0,0,0,-0.215,-0.2146,-0.213,-0.218,-0.2189,-0.2188,-0.2216,-0.2197,-0.2214,-0.2208,-0.2189,-0.2191,-0.2237,-0.2238,-0.2208,-0.2291,-0.2253,-0.226,-0.2288,-0.23,-0.2309,-0.2308,-0.2164,0,0,0,0,0,-0.2167,-0.2191,-0.2187,-0.2232,-0.2236,-0.2226,-0.2238,-0.2226,-0.2234,-0.2237,-0.2237,-0.2247,-0.2269,-0.2284,-0.2304,-0.236,-0.2362,-0.2388,-0.2397,-0.2404,-0.2411,-0.2442,-0.2453,-0.2327,-0.2327,-0.2327,0,0,-0.2203,-0.2204,-0.222,-0.2242,-0.2247,-0.2273,-0.2229,-0.2259,-0.2278,-0.2242,-0.2282,-0.2282,-0.2291,-0.2341,-0.2363,-0.2344,-0.2446,-0.2411,-0.2417,-0.242,-0.2448,-0.246,-0.2471,-0.2331,-0.233,-0.233,0,0,-0.2282,-0.2285,-0.2322,-0.2328,-0.2336,-0.2328,-0.2337,-0.234,-0.2338,-0.2378,-0.2351,-0.2374,-0.2413,-0.2421,-0.243,-0.2512,-0.2491,-0.2519,-0.2567,-0.2597,-0.2607,-0.2616,-0.2646,-0.2657,-0.2525,-0.2525,-0.2525,0,-0.2326,-0.2363,-0.2344,-0.2376,-0.2386,-0.2354,-0.2392,-0.2399,-0.2414,-0.2422,-0.24,-0.2448,-0.2452,-0.2503,-0.2523,-0.2531,-0.2542,-0.2519,-0.2607,-0.2616,-0.2624,-0.2652,-0.2663,-0.2529,-0.2528,-0.2528,-0.2528,0,-0.2417,-0.2444,-0.2473,-0.2488,-0.2501,-0.2536,-0.2523,-0.254,-0.2526,-0.2521,-0.2562,-0.2565,-0.2586,-0.2597,-0.2583,-0.2646,-0.2634,-0.261,-0.2572,-0.2639,-0.2666,-0.2677,-0.2534,-0.2532,-0.2531,-0.253,0,0,-0.253,-0.2533,-0.2544,-0.255,-0.2556,-0.2577,-0.261,-0.263,-0.2645,-0.2656,-0.2684,-0.2717,-0.2695,-0.2705,-0.2692,-0.2719,-0.2784,-0.2691,-0.2691,-0.2709,-0.2855,-0.2874,-0.2887,-0.277,-0.2772,-0.2774,-0.2854,0,-0.2608,-0.2665,-0.2649,-0.2707,-0.2731,-0.2701,-0.273,-0.2738,-0.2734,-0.2755,-0.2751,-0.2775,-0.2743,-0.2749,-0.2774,-0.2771,-0.2813,-0.2765,-0.2797,-0.2799,-0.2797,-0.29,-0.2921,-0.2997,-0.2865,-0.2866,-0.2868,0,-0.2708,-0.2722,-0.2782,-0.2784,-0.2794,-0.282,-0.2837,-0.2857,-0.2865,-0.286,-0.2872,-0.2854,-0.2888,-0.2848,-0.2895,-0.2863,-0.2875,-0.2876,-0.2878,-0.2882,-0.2838,-0.2908,-0.3021,-0.3033,-0.2883,-0.2882,-0.2881,0,-0.2785,-0.2819,-0.2859,-0.2866,-0.2869,-0.2888,-0.2891,-0.2896,-0.2909,-0.2924,-0.2932,-0.2951,-0.2962,-0.2977,-0.2965,-0.2937,-0.3014,-0.2973,-0.3012,-0.3013,-0.3031,-0.303,-0.3148,-0.3037,-0.3037,-0.3036,-0.3036,0,-0.2875,-0.2913,-0.2894,-0.2919,-0.2961,-0.2942,-0.2985,-0.2984,-0.2989,-0.3014,-0.2988,-0.3012,-0.2994,-0.3017,-0.3007,-0.3048,-0.3053,-0.3051,-0.3048,-0.3054,-0.3054,-0.3063,-0.3057,-0.3039,-0.3039,-0.3038,-0.3038,0,-0.2969,-0.2958,-0.3,-0.2999,-0.3,-0.3031,-0.3031,-0.3055,-0.3049,-0.308,-0.3087,-0.3078,-0.3103,-0.3092,-0.3119,-0.3113,-0.3165,-0.3155,-0.3163,-0.3161,-0.32,-0.3197,-0.3329,-0.3346,-0.3223,-0.3224,-0.3225,0,-0.3028,-0.3056,-0.3059,-0.3073,-0.3077,-0.3101,-0.3114,-0.3096,-0.3111,-0.3122,-0.3144,-0.3167,-0.3185,-0.3227,-0.3223,-0.3244,-0.3234,-0.3279,-0.3237,-0.3242,-0.3236,-0.3235,-0.3239,-0.3288,-0.3289,-0.3291,-0.3291,0,-0.3134,-0.3126,-0.3146,-0.3163,-0.3179,-0.3192,-0.3203,-0.3216,-0.3199,-0.3217,-0.3242,-0.3256,-0.3283,-0.3306,-0.3324,-0.3327,-0.3308,-0.3304,-0.3315,-0.3321,-0.3325,-0.3325,-0.3187,-0.3302,-0.3301,-0.33,-0.3299,-0.3299,-0.3212,-0.3236,-0.3242,-0.3264,-0.327,-0.3281,-0.3303,-0.33,-0.3321,-0.3341,-0.3329,-0.3359,-0.3367,-0.3389,-0.3395,-0.3418,-0.3401,-0.3415,-0.3419,-0.3423,-0.3429,-0.332,-0.3421,-0.3421,-0.3421,-0.342,-0.342,0,-0.3318,-0.332,-0.334,-0.3356,-0.3374,-0.3352,-0.3363,-0.3379,-0.3406,-0.3414,-0.3432,-0.3461,-0.3484,-0.3482,-0.3503,-0.3522,-0.3513,-0.3528,-0.3527,-0.3528,-0.3443,-0.3433,-0.3535,-0.3535,-0.3535,-0.3535,-0.3535,-0.3535,-0.3375,-0.3414,-0.3408,-0.3451,-0.3453,-0.3481,-0.349,-0.35,-0.3506,-0.354,-0.3559,-0.3557,-0.3561,-0.3582,-0.3602,-0.3601,-0.3611,-0.3629,-0.3625,-0.3546,-0.3534,-0.3524,-0.3514,-0.3631,-0.3631,-0.3708,-0.3709,-0.371]},{"header":{"parameterUnit":"m.s-1","parameterCategory":1,"la1":30.2991,"la2":30.254,"lo1":-89.0895,"lo2":-89.0444,"dy":0.0017,"dx":0.0017,"nx":28,"ny":28,"refTime":"2026-01-04T03:00:00:Z","depth":0,"parameterNumber":3,"parameterNumberName":"V-component_of_WINDS"},"data":[0,0,0,0,0,0,0,0,0,0,0,0,0,0,0,0,0,0,0,0,0,0,0,0,0,0,0,0,0,0,0,0,0,0,0,0,0,0,0,0,0,0,0,0,0,0,0,0,0,0,0,0,0,0,0,0,0,0,-0.4888,-0.4888,0,-0.49,-0.49,-0.49,-0.4844,-0.4842,-0.4841,-0.4839,-0.4852,-0.4854,-0.4856,0,0,0,0,0,0,0,0,0,0,0,0,0,-0.4817,-0.4818,-0.4888,-0.4888,-0.4888,-0.49,-0.49,-0.49,-0.4844,-0.4842,-0.484,-0.4838,-0.4852,-0.4854,-0.4856,0,0,0,0,0,0,0,0,0,0,0,0,0,-0.484,-0.4819,-0.4888,-0.4861,-0.4859,-0.49,-0.49,-0.49,-0.4845,-0.4842,-0.484,-0.4837,-0.4851,-0.4854,-0.4857,-0.4923,0,0,-0.4865,-0.4866,0,0,0,0,0,0,0,0,-0.4839,-0.4843,-0.4865,-0.4863,-0.4861,-0.4868,-0.488,-0.4908,-0.4845,-0.485,-0.4839,-0.4836,-0.486,-0.4862,-0.4869,-0.4924,-0.4924,-0.4865,-0.4867,-0.4868,-0.4869,0,0,0,0,0,0,0,-0.4837,-0.4842,-0.4892,-0.4866,-0.4863,-0.4849,-0.485,-0.4885,-0.4869,-0.485,-0.4846,-0.4848,-0.4858,-0.4867,-0.4869,-0.4924,-0.4865,-0.4868,-0.487,-0.4871,-0.5034,-0.5037,0,0,0,0,0,0,-0.4839,-0.4841,-0.4892,-0.4893,-0.4844,-0.4853,-0.4853,-0.4868,-0.4868,-0.4866,-0.485,-0.4845,-0.4863,-0.4866,-0.4869,-0.4948,-0.4868,-0.4871,-0.4873,-0.5032,-0.5035,-0.5038,0,0,0,0,0,0,-0.4838,-0.4844,-0.4892,-0.4866,-0.4871,-0.4857,-0.4874,-0.487,-0.4878,-0.4868,-0.4865,-0.4862,-0.4861,-0.4865,-0.491,-0.4947,-0.4872,-0.4875,-0.5029,-0.5033,-0.5036,-0.5104,0,0,0,0,0,0,-0.4836,-0.4844,-0.4869,-0.4867,-0.4872,-0.4932,-0.4876,-0.4872,-0.4883,-0.4877,-0.4878,-0.4876,-0.486,-0.4906,-0.4913,-0.495,-0.4877,-0.5025,-0.503,-0.5035,-0.5099,-0.511,-0.512,0,0,0,0,0,-0.4834,-0.4888,-0.4871,-0.4877,-0.4903,-0.4934,-0.4938,-0.4917,-0.4886,-0.4911,-0.4905,-0.4876,-0.4942,-0.4911,-0.4918,-0.4957,-0.5023,-0.5029,-0.5035,-0.5094,-0.5108,-0.512,0,0,0,0,0,0,-0.4895,-0.4887,-0.4868,-0.4923,-0.493,-0.4925,-0.4956,-0.4932,-0.4948,-0.4942,-0.4916,-0.4917,-0.4966,-0.4966,-0.4932,-0.5021,-0.4977,-0.4985,-0.502,-0.5033,-0.5043,-0.5043,-0.4879,0,0,0,0,0,-0.4915,-0.494,-0.4932,-0.4981,-0.4986,-0.497,-0.4983,-0.4967,-0.4973,-0.4976,-0.4972,-0.498,-0.5002,-0.5017,-0.5037,-0.5098,-0.5098,-0.5128,-0.5139,-0.5147,-0.5155,-0.5187,-0.5201,-0.5058,-0.5057,-0.5057,0,0,-0.4956,-0.4955,-0.4973,-0.4994,-0.4997,-0.5025,-0.4973,-0.5004,-0.5025,-0.498,-0.5023,-0.5021,-0.5027,-0.508,-0.5104,-0.5082,-0.5194,-0.5155,-0.5162,-0.5164,-0.5195,-0.5208,-0.5221,-0.5062,-0.5061,-0.506,0,0,-0.5045,-0.5047,-0.5088,-0.5093,-0.5098,-0.5088,-0.5098,-0.5097,-0.5094,-0.5136,-0.5103,-0.5127,-0.5166,-0.5172,-0.518,-0.5272,-0.5247,-0.528,-0.5335,-0.5367,-0.5379,-0.5389,-0.5422,-0.5434,-0.5287,-0.5287,-0.5287,0,-0.5096,-0.5136,-0.5112,-0.5146,-0.5156,-0.5117,-0.5159,-0.5165,-0.5177,-0.5186,-0.516,-0.5208,-0.521,-0.5265,-0.5287,-0.5295,-0.5306,-0.5279,-0.5379,-0.5389,-0.5397,-0.5429,-0.5442,-0.5291,-0.529,-0.529,-0.5289,0,-0.5198,-0.5226,-0.5259,-0.5272,-0.5286,-0.5324,-0.5306,-0.5323,-0.5306,-0.5298,-0.5342,-0.5342,-0.5362,-0.5373,-0.5356,-0.5426,-0.5412,-0.5383,-0.5339,-0.5416,-0.5445,-0.5457,-0.5296,-0.5295,-0.5294,-0.5293,0,0,-0.5327,-0.5326,-0.5338,-0.5344,-0.5348,-0.5369,-0.5405,-0.5424,-0.544,-0.5449,-0.5479,-0.5513,-0.5487,-0.5496,-0.548,-0.5508,-0.5582,-0.5476,-0.5476,-0.5496,-0.5659,-0.5681,-0.5695,-0.5565,-0.5567,-0.5569,-0.5658,0,-0.5415,-0.5476,-0.5456,-0.5518,-0.5545,-0.5508,-0.5539,-0.5545,-0.5539,-0.5561,-0.5554,-0.5578,-0.5542,-0.5547,-0.5573,-0.5567,-0.5614,-0.556,-0.5593,-0.5594,-0.5593,-0.571,-0.5734,-0.5819,-0.567,-0.5672,-0.5673,0,-0.5525,-0.554,-0.5605,-0.5604,-0.5615,-0.5643,-0.5659,-0.568,-0.5686,-0.568,-0.5691,-0.5668,-0.5704,-0.5659,-0.5708,-0.5672,-0.5684,-0.5683,-0.5686,-0.5689,-0.5639,-0.5717,-0.5845,-0.5858,-0.5691,-0.5689,-0.5688,0,-0.5614,-0.5649,-0.5692,-0.5698,-0.5699,-0.572,-0.5721,-0.5725,-0.5738,-0.5752,-0.576,-0.5778,-0.5788,-0.5803,-0.5786,-0.5755,-0.5838,-0.5791,-0.5834,-0.5835,-0.5854,-0.5853,-0.5986,-0.5861,-0.586,-0.586,-0.586,0,-0.5714,-0.5756,-0.5732,-0.5759,-0.5804,-0.5781,-0.5827,-0.5824,-0.5828,-0.5854,-0.5823,-0.5848,-0.5824,-0.5847,-0.5834,-0.5877,-0.5882,-0.5878,-0.5874,-0.5881,-0.5882,-0.5889,-0.5883,-0.5864,-0.5863,-0.5862,-0.5862,0,-0.582,-0.5806,-0.5851,-0.5848,-0.5848,-0.5882,-0.5879,-0.5904,-0.5896,-0.5929,-0.5936,-0.5923,-0.5948,-0.5933,-0.5959,-0.595,-0.6007,-0.5994,-0.6005,-0.6002,-0.6046,-0.6042,-0.6189,-0.6207,-0.6069,-0.6071,-0.6072,0,-0.5886,-0.5917,-0.5917,-0.5932,-0.5936,-0.596,-0.5973,-0.5952,-0.5967,-0.5976,-0.6,-0.6023,-0.604,-0.6083,-0.6076,-0.6096,-0.6084,-0.6134,-0.6087,-0.6093,-0.6086,-0.6085,-0.6088,-0.6144,-0.6146,-0.6147,-0.6148,0,-0.6004,-0.5996,-0.6015,-0.6033,-0.605,-0.6062,-0.6073,-0.6087,-0.6065,-0.6084,-0.6109,-0.6123,-0.6149,-0.6173,-0.619,-0.6191,-0.6167,-0.6163,-0.6174,-0.6182,-0.6187,-0.6186,-0.6032,-0.616,-0.6159,-0.6158,-0.6157,-0.6157,-0.6092,-0.6119,-0.6123,-0.6146,-0.6152,-0.6162,-0.6186,-0.618,-0.6201,-0.6221,-0.6207,-0.6238,-0.6243,-0.6263,-0.6268,-0.6292,-0.6272,-0.6288,-0.6292,-0.6296,-0.6303,-0.6183,-0.6295,-0.6294,-0.6294,-0.6294,-0.6294,0,-0.621,-0.6211,-0.6232,-0.6248,-0.6266,-0.6241,-0.6251,-0.6269,-0.6296,-0.6303,-0.6321,-0.6351,-0.6373,-0.6368,-0.6388,-0.6409,-0.6398,-0.6415,-0.6413,-0.6414,-0.6319,-0.6308,-0.6423,-0.6423,-0.6423,-0.6423,-0.6423,-0.6423,-0.6273,-0.6316,-0.6308,-0.6354,-0.6354,-0.6384,-0.6392,-0.6402,-0.6408,-0.6442,-0.6461,-0.6457,-0.646,-0.648,-0.65,-0.6498,-0.6507,-0.6528,-0.6522,-0.6434,-0.6421,-0.6409,-0.6398,-0.653,-0.653,-0.6615,-0.6616,-0.6617]}]]